Time,TemperatureF,DewpointF,PressureIn,WindDirection,WindDirectionDegrees,WindSpeedMPH,WindSpeedGustMPH,Humidity,HourlyPrecipIn,Conditions,Clouds,dailyrainin,SoftwareType,DateUTC
2013-08-06 00:02:00,64.0,58.0,29.98,North,0,0.0,0.0,80,0.00,,,0.00,,2013-08-06 04:02:00,
2013-08-06 00:11:00,64.0,58.0,29.98,North,0,0.0,0.0,80,0.00,,,0.00,,2013-08-06 04:11:00,
2013-08-06 00:22:00,64.0,58.0,29.98,North,0,0.0,0.0,80,0.00,,,0.00,,2013-08-06 04:22:00,
2013-08-06 00:33:00,64.0,58.0,29.98,North,0,0.0,0.0,81,0.02,,,0.02,,2013-08-06 04:33:00,
2013-08-06 00:44:00,64.0,58.0,29.98,North,0,0.0,0.0,82,0.02,,,0.02,,2013-08-06 04:44:00,
2013-08-06 00:53:00,64.0,58.0,29.98,North,0,0.0,0.0,82,0.02,,,0.02,,2013-08-06 04:53:00,
2013-08-06 01:02:00,63.0,58.0,30.00,North,0,0.0,0.0,85,0.02,,,0.02,,2013-08-06 05:02:00,
2013-08-06 01:11:00,63.0,58.0,30.00,North,0,0.0,0.0,85,0.02,,,0.02,,2013-08-06 05:11:00,
2013-08-06 01:22:00,62.0,58.0,30.00,North,0,0.0,0.0,87,0.02,,,0.02,,2013-08-06 05:22:00,
2013-08-06 01:43:00,62.0,58.0,29.98,North,0,0.0,0.0,87,0.02,,,0.02,,2013-08-06 05:43:00,
2013-08-06 01:53:00,62.0,58.0,29.98,North,0,0.0,0.0,87,0.02,,,0.02,,2013-08-06 05:53:00,
2013-08-06 02:02:00,63.0,58.0,29.98,North,0,0.0,0.0,84,0.00,,,0.02,,2013-08-06 06:02:00,
2013-08-06 02:11:00,63.0,58.0,30.00,North,0,0.0,0.0,84,0.00,,,0.02,,2013-08-06 06:11:00,
2013-08-06 02:22:00,63.0,58.0,30.00,North,0,0.0,0.0,84,0.00,,,0.02,,2013-08-06 06:22:00,
2013-08-06 02:32:00,63.0,58.0,29.98,North,0,0.0,0.0,84,0.00,,,0.02,,2013-08-06 06:32:00,
2013-08-06 02:43:00,63.0,58.0,29.98,North,0,0.0,0.0,84,0.00,,,0.02,,2013-08-06 06:43:00,
2013-08-06 03:01:00,63.0,58.0,29.98,North,0,0.0,0.0,84,0.00,,,0.02,,2013-08-06 07:01:00,
2013-08-06 03:12:00,63.0,58.0,29.98,North,0,0.0,0.0,84,0.00,,,0.02,,2013-08-06 07:12:00,
2013-08-06 03:22:00,63.0,58.0,29.98,North,0,0.0,0.0,84,0.00,,,0.02,,2013-08-06 07:22:00,
2013-08-06 03:32:00,62.0,58.0,29.98,North,0,0.0,0.0,87,0.00,,,0.02,,2013-08-06 07:32:00,
2013-08-06 03:43:00,62.0,58.0,29.98,North,0,0.0,0.0,87,0.00,,,0.02,,2013-08-06 07:43:00,
2013-08-06 04:02:00,62.0,58.0,29.97,North,0,0.0,0.0,87,0.00,,,0.02,,2013-08-06 08:02:00,
2013-08-06 04:11:00,62.0,58.0,29.97,North,0,0.0,0.0,87,0.00,,,0.02,,2013-08-06 08:11:00,
2013-08-06 04:22:00,62.0,58.0,29.97,North,0,0.0,0.0,87,0.00,,,0.02,,2013-08-06 08:22:00,
2013-08-06 04:33:00,62.0,58.0,29.97,North,0,0.0,0.0,87,0.00,,,0.02,,2013-08-06 08:33:00,
2013-08-06 04:43:00,62.0,57.0,29.98,North,0,0.0,0.0,83,0.00,,,0.02,,2013-08-06 08:43:00,
2013-08-06 05:01:00,62.0,57.0,29.98,North,0,0.0,0.0,83,0.00,,,0.02,,2013-08-06 09:01:00,
2013-08-06 05:11:00,62.0,57.0,29.98,North,0,0.0,0.0,83,0.00,,,0.02,,2013-08-06 09:11:00,
2013-08-06 05:22:00,62.0,57.0,29.98,North,0,0.0,0.0,83,0.00,,,0.02,,2013-08-06 09:22:00,
2013-08-06 05:32:00,62.0,57.0,29.98,North,0,0.0,0.0,83,0.00,,,0.02,,2013-08-06 09:32:00,
2013-08-06 05:43:00,62.0,56.0,29.97,North,0,0.0,0.0,82,0.00,,,0.02,,2013-08-06 09:43:00,
2013-08-06 05:52:00,62.0,56.0,29.97,North,0,0.0,0.0,82,0.00,,,0.02,,2013-08-06 09:52:00,
2013-08-06 06:12:00,61.0,55.0,29.97,North,0,0.0,0.0,82,0.00,,,0.02,,2013-08-06 10:12:00,
2013-08-06 06:22:00,61.0,55.0,29.97,North,0,0.0,0.0,82,0.00,,,0.02,,2013-08-06 10:22:00,
2013-08-06 06:32:00,61.0,55.0,29.96,North,0,0.0,0.0,82,0.00,,,0.02,,2013-08-06 10:32:00,
2013-08-06 06:43:00,61.0,55.0,29.96,North,0,0.0,0.0,82,0.00,,,0.02,,2013-08-06 10:43:00,
2013-08-06 06:52:00,61.0,55.0,29.96,North,0,0.0,0.0,82,0.00,,,0.02,,2013-08-06 10:52:00,
2013-08-06 07:02:00,61.0,55.0,29.98,North,0,0.0,0.0,82,0.00,,,0.02,,2013-08-06 11:02:00,
2013-08-06 07:11:00,61.0,55.0,29.98,North,0,0.0,0.0,82,0.00,,,0.02,,2013-08-06 11:11:00,
2013-08-06 07:22:00,60.0,55.0,29.98,North,0,0.0,0.0,83,0.00,,,0.02,,2013-08-06 11:22:00,
2013-08-06 07:32:00,61.0,56.0,29.98,North,0,0.0,0.0,83,0.00,,,0.02,,2013-08-06 11:32:00,
2013-08-06 07:43:00,62.0,56.0,29.98,North,0,0.0,0.0,82,0.00,,,0.02,,2013-08-06 11:43:00,
2013-08-06 07:53:00,62.0,56.0,29.98,North,0,0.0,0.0,82,0.00,,,0.02,,2013-08-06 11:53:00,
2013-08-06 08:02:00,63.0,58.0,30.00,North,0,0.0,0.0,83,0.00,,,0.02,,2013-08-06 12:02:00,
2013-08-06 08:11:00,63.0,58.0,30.00,North,0,0.0,0.0,83,0.00,,,0.02,,2013-08-06 12:11:00,
2013-08-06 08:22:00,63.0,58.0,30.00,North,0,0.0,0.0,83,0.00,,,0.02,,2013-08-06 12:22:00,
2013-08-06 08:43:00,65.0,59.0,30.00,North,0,0.0,0.0,80,0.00,,,0.02,,2013-08-06 12:43:00,
2013-08-06 09:02:00,67.0,60.0,30.00,North,0,0.0,0.0,79,0.00,,,0.02,,2013-08-06 13:02:00,
2013-08-06 09:11:00,67.0,60.0,30.00,North,0,0.0,0.0,79,0.00,,,0.02,,2013-08-06 13:11:00,
2013-08-06 09:22:00,67.0,60.0,30.00,North,0,0.0,0.0,79,0.00,,,0.02,,2013-08-06 13:22:00,
2013-08-06 09:42:00,68.0,59.0,30.00,North,0,0.0,0.0,74,0.00,,,0.02,,2013-08-06 13:42:00,
2013-08-06 10:01:00,70.0,60.0,30.00,North,0,0.0,0.0,71,0.00,,,0.02,,2013-08-06 14:01:00,
2013-08-06 10:11:00,70.0,60.0,30.00,North,0,0.0,0.0,71,0.00,,,0.02,,2013-08-06 14:11:00,
2013-08-06 10:22:00,70.0,60.0,30.00,North,0,0.0,0.0,71,0.00,,,0.02,,2013-08-06 14:22:00,
2013-08-06 11:02:00,72.0,60.0,29.98,North,0,0.0,0.0,67,0.00,,,0.02,,2013-08-06 15:02:00,
2013-08-06 11:11:00,73.0,61.0,30.00,North,0,0.0,0.0,66,0.00,,,0.02,,2013-08-06 15:11:00,
2013-08-06 11:33:00,76.0,62.0,30.00,North,0,0.0,0.0,62,0.00,,,0.02,,2013-08-06 15:33:00,
2013-08-06 11:44:00,77.0,63.0,30.00,North,0,0.0,0.0,61,0.00,,,0.02,,2013-08-06 15:44:00,
2013-08-06 11:52:00,77.0,63.0,30.00,North,0,0.0,0.0,61,0.00,,,0.02,,2013-08-06 15:52:00,
2013-08-06 12:02:00,77.0,63.0,30.00,North,0,0.0,0.0,61,0.00,,,0.02,,2013-08-06 16:02:00,
2013-08-06 12:11:00,77.0,63.0,30.00,North,0,0.0,0.0,61,0.00,,,0.02,,2013-08-06 16:11:00,
2013-08-06 12:22:00,77.0,63.0,30.00,North,0,0.0,0.0,61,0.00,,,0.02,,2013-08-06 16:22:00,
2013-08-06 13:02:00,81.0,64.0,29.98,North,0,0.0,0.0,56,0.00,,,0.02,,2013-08-06 17:02:00,
2013-08-06 13:11:00,81.0,64.0,29.98,North,0,0.0,0.0,56,0.00,,,0.02,,2013-08-06 17:11:00,
2013-08-06 13:44:00,82.0,63.0,29.98,North,0,0.0,0.0,53,0.00,,,0.02,,2013-08-06 17:44:00,
2013-08-06 13:52:00,82.0,63.0,29.98,North,0,0.0,0.0,53,0.00,,,0.02,,2013-08-06 17:52:00,
2013-08-06 14:20:00,84.0,63.0,29.98,North,0,0.0,0.0,49,0.00,,,0.02,,2013-08-06 18:20:00,
2013-08-06 15:01:00,84.0,63.0,29.98,North,0,0.0,0.0,49,0.00,,,0.02,,2013-08-06 19:01:00,
2013-08-06 15:11:00,84.0,63.0,29.98,North,0,0.0,0.0,49,0.00,,,0.02,,2013-08-06 19:11:00,
2013-08-06 15:32:00,85.0,64.0,29.95,North,0,0.0,0.0,50,0.00,,,0.02,,2013-08-06 19:32:00,
2013-08-06 15:42:00,85.0,64.0,29.95,North,0,0.0,0.0,50,0.00,,,0.02,,2013-08-06 19:42:00,
2013-08-06 15:52:00,85.0,64.0,29.95,North,0,0.0,0.0,50,0.00,,,0.02,,2013-08-06 19:52:00,
2013-08-06 16:01:00,85.0,64.0,29.95,North,0,0.0,0.0,50,0.00,,,0.02,,2013-08-06 20:01:00,
2013-08-06 16:11:00,85.0,64.0,29.95,North,0,0.0,0.0,50,0.00,,,0.02,,2013-08-06 20:11:00,
2013-08-06 16:22:00,85.0,64.0,29.95,North,0,0.0,0.0,49,0.00,,,0.02,,2013-08-06 20:22:00,
2013-08-06 17:01:00,84.0,65.0,29.95,North,0,0.0,0.0,53,0.00,,,0.02,,2013-08-06 21:01:00,
2013-08-06 17:11:00,84.0,65.0,29.95,North,0,0.0,0.0,53,0.00,,,0.02,,2013-08-06 21:11:00,
2013-08-06 17:22:00,84.0,64.0,29.95,North,0,0.0,0.0,52,0.00,,,0.02,,2013-08-06 21:22:00,
2013-08-06 17:32:00,83.0,64.0,29.95,North,0,0.0,0.0,53,0.00,,,0.02,,2013-08-06 21:32:00,
2013-08-06 17:43:00,83.0,64.0,29.95,North,0,0.0,0.0,53,0.00,,,0.02,,2013-08-06 21:43:00,
2013-08-06 18:01:00,84.0,65.0,29.93,North,0,0.0,0.0,53,0.00,,,0.02,,2013-08-06 22:01:00,
2013-08-06 18:11:00,84.0,65.0,29.93,North,0,0.0,0.0,53,0.00,,,0.02,,2013-08-06 22:11:00,
2013-08-06 18:32:00,83.0,64.0,29.95,North,0,0.0,0.0,52,0.00,,,0.02,,2013-08-06 22:32:00,
2013-08-06 18:43:00,82.0,64.0,29.93,North,0,0.0,0.0,54,0.00,,,0.02,,2013-08-06 22:43:00,
2013-08-06 18:53:00,82.0,64.0,29.93,North,0,0.0,0.0,54,0.00,,,0.02,,2013-08-06 22:53:00,
2013-08-06 19:01:00,82.0,64.0,29.93,North,0,0.0,0.0,55,0.00,,,0.02,,2013-08-06 23:01:00,
2013-08-06 19:11:00,81.0,64.0,29.93,North,0,0.0,0.0,56,0.00,,,0.02,,2013-08-06 23:11:00,
2013-08-06 19:52:00,79.0,64.0,29.93,North,0,0.0,0.0,60,0.00,,,0.02,,2013-08-06 23:52:00,
2013-08-06 20:01:00,79.0,64.0,29.93,North,0,0.0,0.0,60,0.00,,,0.02,,2013-08-07 00:01:00,
2013-08-06 20:11:00,78.0,64.0,29.93,North,0,0.0,0.0,62,0.00,,,0.02,,2013-08-07 00:11:00,
2013-08-06 20:32:00,76.0,63.0,29.93,North,0,0.0,0.0,65,0.00,,,0.02,,2013-08-07 00:32:00,
2013-08-06 20:43:00,76.0,63.0,29.93,North,0,0.0,0.0,65,0.00,,,0.02,,2013-08-07 00:43:00,
2013-08-06 20:52:00,76.0,63.0,29.93,North,0,0.0,0.0,65,0.00,,,0.02,,2013-08-07 00:52:00,
2013-08-06 21:01:00,74.0,63.0,29.93,North,0,0.0,0.0,68,0.00,,,0.02,,2013-08-07 01:01:00,
2013-08-06 21:11:00,74.0,63.0,29.93,North,0,0.0,0.0,68,0.00,,,0.02,,2013-08-07 01:11:00,
2013-08-06 21:22:00,74.0,63.0,29.93,North,0,0.0,0.0,68,0.00,,,0.02,,2013-08-07 01:22:00,
2013-08-06 21:32:00,72.0,62.0,29.93,North,0,0.0,0.0,70,0.00,,,0.02,,2013-08-07 01:32:00,
2013-08-06 21:43:00,72.0,62.0,29.93,North,0,0.0,0.0,70,0.00,,,0.02,,2013-08-07 01:43:00,
2013-08-06 21:52:00,72.0,62.0,29.93,North,0,0.0,0.0,70,0.00,,,0.02,,2013-08-07 01:52:00,
2013-08-06 22:02:00,71.0,63.0,29.93,North,0,0.0,0.0,75,0.00,,,0.02,,2013-08-07 02:02:00,
2013-08-06 22:11:00,71.0,63.0,29.93,North,0,0.0,0.0,75,0.00,,,0.02,,2013-08-07 02:11:00,
2013-08-06 22:33:00,70.0,62.0,29.93,North,0,0.0,0.0,75,0.00,,,0.02,,2013-08-07 02:33:00,
2013-08-06 23:01:00,70.0,62.0,29.93,North,0,0.0,0.0,76,0.00,,,0.02,,2013-08-07 03:01:00,
2013-08-06 23:11:00,70.0,62.0,29.93,North,0,0.0,0.0,76,0.00,,,0.02,,2013-08-07 03:11:00,
2013-08-06 23:23:00,69.0,61.0,29.93,North,0,0.0,0.0,77,0.00,,,0.02,,2013-08-07 03:23:00,
2013-08-06 23:32:00,69.0,61.0,29.93,North,0,0.0,0.0,77,0.00,,,0.02,,2013-08-07 03:32:00,
2013-08-06 23:43:00,69.0,61.0,29.93,North,0,0.0,0.0,77,0.00,,,0.02,,2013-08-07 03:43:00,
2013-08-06 23:52:00,69.0,61.0,29.93,North,0,0.0,0.0,77,0.00,,,0.02,,2013-08-07 03:52:00,